Chongqing, China

4:56 PM CST on November 21, 2019 (GMT +0800)
Jiangbei

Weather History for ZUCK - September, 2019

Change the Weather History Date:

Sunday, September 22, 2019

  Actual Average Record
Temperature  
Mean Temperature 74 °F -  
Max Temperature 84 °F - - ()
Min Temperature 64 °F - - ()
Cooling Degree Days 9    
Growing Degree Days 24 (Base 50)    
Moisture  
Dew Point 64 °F    
Average Humidity 74    
Maximum Humidity 100    
Minimum Humidity 35    
Precipitation  
Precipitation 0.00 in - - ()
Sea Level Pressure  
Sea Level Pressure 30.15 in    
Wind  
Wind Speed 3 mph ()    
Max Wind Speed 9 mph    
Max Gust Speed -    
Visibility 4.6 miles    
Events      
T = Trace of Precipitation, MM = Missing Value Source: Averaged Metar Reports

Daily Weather History Graph

Daily Weather History Graph

Search for Another Location

Airport or City:

Astronomy

Sep. 22, 2019 Rise Set
Actual Time 6:41 AM CST 6:50 PM CST
Civil Twilight 6:17 AM CST 7:14 PM CST
Nautical Twilight 5:49 AM CST 7:42 PM CST
Astronomical Twilight 5:21 AM CST 8:10 PM CST
Moon No Moon Rise 1:46 PM CST (9/22)
Length of Visible Light 12h 57m
Length of Day
12h 09m
Waning Gibbous, 49% of the Moon is Illuminated
Sep 22
Waning Gibbous
Sep 29
New
Oct 6
First Quarter
Oct 14
Full
Oct 21
Last Quarter

Hourly Weather History & Observations

Time (CST) Temp. Heat Index Dew Point Humidity Pressure Visibility Wind Dir Wind Speed Gust Speed Precip Events Conditions
12:00 AM 68.0 °F - 66.2 °F 94% 30.15 in - North 4.5 mph - N/A   Clear
1:00 AM 68.0 °F - 64.4 °F 88% 30.15 in - NNE 4.5 mph - N/A   Clear
2:00 AM 68 °F - 62 °F 77% 30.11 in 5 mi WNW 2.2 mph - -  
2:00 AM 68.0 °F - 66.2 °F 94% 30.15 in 5.0 mi NNE 2.2 mph - N/A   Unknown
3:00 AM 68.0 °F - 66.2 °F 94% 30.15 in 4.3 mi Calm Calm - N/A   Unknown
4:00 AM 66.2 °F - 66.2 °F 100% 30.15 in 4.3 mi NE 2.2 mph - N/A   Unknown
5:00 AM 66 °F - 63 °F 87% 30.12 in - WNW 2.2 mph - -   Mist
5:00 AM 66.2 °F - 64.4 °F 94% 30.15 in 3.7 mi Calm Calm - N/A   Unknown
6:00 AM 64.4 °F - 64.4 °F 100% 30.18 in 2.5 mi Variable 2.2 mph - N/A   Mist
7:00 AM 64.4 °F - 64.4 °F 100% 30.18 in - Calm Calm - N/A   Mist
8:00 AM 67 °F - 64 °F 87% 30.17 in - NW 2.2 mph - -   Mist
8:00 AM 66.2 °F - 66.2 °F 100% 30.21 in 2.2 mi Variable 2.2 mph - N/A   Mist
9:00 AM 69.8 °F - 66.2 °F 88% 30.21 in 3.1 mi Variable 2.2 mph - N/A   Mist
10:00 AM 73.4 °F - 68.0 °F 83% 30.24 in 3.1 mi Variable 2.2 mph - N/A   Partly Cloudy
11:00 AM 79 °F - 66 °F 56% 30.18 in 3 mi East 2.2 mph - -   Mist
11:00 AM 75.2 °F - 68.0 °F 78% 30.24 in 3.7 mi SSE 4.5 mph - N/A   Scattered Clouds
12:00 PM 77.0 °F - 68.0 °F 74% 30.21 in 6.2 mi Variable 2.2 mph - N/A   Mostly Cloudy
1:00 PM 78.8 °F - 64.4 °F 61% 30.18 in 6.2 mi Variable 2.2 mph - N/A   Scattered Clouds
2:00 PM 84 °F - 61 °F 36% 30.10 in 6 mi NE 2.2 mph - -   Partly Cloudy
2:00 PM 80.6 °F 82.3 °F 64.4 °F 58% 30.15 in 6.2 mi SSW 4.5 mph - N/A   Scattered Clouds
3:00 PM 82.4 °F 82.9 °F 60.8 °F 48% 30.12 in 6.2 mi SSW 6.7 mph - N/A   Scattered Clouds
4:00 PM 80.6 °F 81.5 °F 60.8 °F 51% 30.12 in 6.2 mi WNW 6.7 mph - N/A   Partly Cloudy
5:00 PM 84 °F - 61 °F 35% 30.04 in 8 mi NW 2.2 mph - -   Mostly Cloudy
5:00 PM 82.4 °F 83.4 °F 62.6 °F 51% 30.09 in - WNW 4.5 mph - N/A   Clear
6:00 PM 80.6 °F 81.5 °F 60.8 °F 51% 30.09 in - NW 4.5 mph - N/A   Clear
7:00 PM 78.8 °F - 62.6 °F 57% 30.09 in - North 6.7 mph - N/A   Clear
8:00 PM 77 °F - 63 °F 54% 30.05 in 4 mi WNW 4.5 mph - -   Mist
8:00 PM 75.2 °F - 64.4 °F 69% 30.12 in - North 8.9 mph - N/A   Clear
10:00 PM 71.6 °F - 64.4 °F 78% 30.15 in - North 6.7 mph - N/A   Clear
11:00 PM 73 °F - 64 °F 65% 30.10 in 4 mi NW 2.2 mph - -   Mist
11:00 PM 71.6 °F - 62.6 °F 73% 30.15 in - North 6.7 mph - N/A   Clear